QPF
0.00 0.00 0.00 0.00 0.00 0.00 0.00 0.00 0.00 0.00 0.00 0.00 0.00 0.00 0.00 0.00 0.00 0.00 0.01 0.01 0.01 0.01 0.01 0.01 0.02 0.02 0.04 0.04 0.03 0.02 0.02 0.04 0.03 0.04 0.03 0.03 0.03 0.03 0.02 0.03 0.03 0.04 0.04 0.03
0.00 0.00 0.00 0.00 0.00 0.00 0.00 0.00 0.00 0.00 0.00 0.00 0.00 0.00 0.00 0.00 0.00 0.00 0.00 0.00 0.00 0.00 0.00 0.01 0.02 0.03 0.05 0.04 0.03 0.02 0.03 0.04 0.05 0.06 0.06 0.05 0.04 0.03 0.03 0.04 0.04 0.02 0.03 0.03
0.00 0.00 0.00 0.00 0.00 0.00 0.00 0.00 0.00 0.00 0.00 0.00 0.00 0.00 0.00 0.00 0.00 0.00 0.00 0.00 0.00 0.00 0.00 0.00 0.01 0.03 0.05 0.03 0.02 0.03 0.04 0.05 0.06 0.07 0.08 0.06 0.05 0.04 0.05 0.05 0.03 0.02 0.03 0.04
0.00 0.00 0.00 0.00 0.00 0.01 0.00 0.00 0.00 0.00 0.00 0.00 0.00 0.00 0.00 0.00 0.00 0.00 0.00 0.00 0.00 0.00 0.00 0.01 0.02 0.03 0.03 0.03 0.03 0.03 0.03 0.04 0.05 0.05 0.05 0.05 0.04 0.03 0.03 0.04 0.03 0.03 0.03 0.04
0.00 0.00 0.00 0.00 0.00 0.01 0.00 0.00 0.00 0.00 0.00 0.00 0.00 0.00 0.00 0.00 0.00 0.00 0.00 0.00 0.00 0.01 0.01 0.02 0.02 0.03 0.02 0.03 0.03 0.03 0.02 0.03 0.03 0.03 0.03 0.03 0.04 0.04 0.03 0.04 0.05 0.06 0.08 0.07
0.01 0.00 0.00 0.00 0.00 0.00 0.00 0.01 0.00 0.00 0.00 0.00 0.00 0.00 0.00 0.00 0.00 0.00 0.00 0.00 0.00 0.01 0.01 0.02 0.02 0.02 0.02 0.01 0.01 0.02 0.02 0.02 0.02 0.03 0.03 0.03 0.03 0.04 0.05 0.06 0.08 0.09 0.09 0.08
0.00 0.01 0.00 0.01 0.01 0.00 0.00 0.01 0.01 0.00 0.00 0.00 0.00 0.00 0.00 0.00 0.00 0.00 0.00 0.00 0.01 0.01 0.02 0.03 0.03 0.03 0.02 0.01 0.01 0.01 0.01 0.01 0.01 0.02 0.04 0.04 0.03 0.03 0.04 0.05 0.08 0.08 0.06 0.05
0.00 0.00 0.00 0.00 0.01 0.01 0.00 0.01 0.01 0.01 0.00 0.00 0.00 0.00 0.00 0.00 0.01 0.01 0.00 0.00 0.00 0.00 0.01 0.03 0.03 0.02 0.01 0.01 0.01 0.01 0.01 0.01 0.02 0.02 0.03 0.03 0.03 0.03 0.03 0.03 0.03 0.03 0.03 0.04
0.00 0.00 0.00 0.00 0.00 0.00 0.00 0.00 0.00 0.00 0.00 0.00 0.00 0.00 0.00 0.00 0.00 0.01 0.01 0.01 0.01 0.01 0.01 0.01 0.01 0.01 0.01 0.02 0.02 0.02 0.02 0.02 0.03 0.03 0.02 0.02 0.02 0.02 0.03 0.03 0.03 0.03 0.04 0.05
0.00 0.00 0.00 0.00 0.00 0.00 0.01 0.01 0.00 0.00 0.00 0.00 0.00 0.00 0.00 0.00 0.00 0.00 0.00 0.01 0.01 0.01 0.00 0.01 0.01 0.01 0.01 0.01 0.03 0.04 0.04 0.05 0.04 0.03 0.03 0.02 0.02 0.03 0.04 0.06 0.07 0.08 0.07 0.06
0.00 0.00 0.01 0.01 0.01 0.00 0.00 0.01 0.00 0.00 0.00 0.00 0.00 0.00 0.00 0.00 0.00 0.00 0.01 0.01 0.01 0.01 0.01 0.01 0.01 0.01 0.02 0.02 0.03 0.04 0.07 0.08 0.07 0.05 0.04 0.04 0.04 0.04 0.05 0.07 0.09 0.10 0.10 0.10
0.01 0.00 0.00 0.01 0.01 0.00 0.00 0.00 0.00 0.00 0.01 0.01 0.01 0.01 0.01 0.01 0.01 0.01 0.01 0.01 0.01 0.01 0.01 0.01 0.01 0.02 0.05 0.08 0.08 0.06 0.05 0.06 0.06 0.05 0.04 0.04 0.04 0.04 0.03 0.03 0.04 0.05 0.05 0.05
0.00 0.00 0.00 0.00 0.01 0.01 0.01 0.01 0.00 0.00 0.01 0.01 0.01 0.01 0.01 0.01 0.01 0.01 0.01 0.01 0.01 0.01 0.01 0.01 0.01 0.02 0.03 0.05 0.08 0.11 0.08 0.05 0.04 0.04 0.04 0.03 0.03 0.03 0.03 0.02 0.03 0.03 0.04 0.03
0.01 0.00 0.00 0.01 0.00 0.01 0.01 0.01 0.01 0.01 0.01 0.00 0.00 0.00 0.00 0.00 0.00 0.01 0.01 0.01 0.01 0.02 0.02 0.02 0.02 0.02 0.03 0.03 0.04 0.09 0.09 0.08 0.06 0.04 0.03 0.03 0.03 0.03 0.02 0.01 0.01 0.02 0.03 0.03
0.01 0.01 0.01 0.01 0.01 0.01 0.02 0.02 0.02 0.01 0.01 0.01 0.01 0.01 0.01 0.00 0.01 0.01 0.01 0.01 0.02 0.02 0.03 0.04 0.03 0.03 0.03 0.03 0.03 0.04 0.05 0.05 0.05 0.04 0.03 0.03 0.02 0.02 0.02 0.02 0.01 0.01 0.02 0.02
0.02 0.02 0.02 0.01 0.01 0.01 0.02 0.03 0.03 0.02 0.01 0.01 0.01 0.01 0.01 0.01 0.01 0.02 0.02 0.02 0.03 0.04 0.05 0.06 0.06 0.05 0.05 0.05 0.05 0.06 0.06 0.07 0.06 0.04 0.03 0.03 0.03 0.02 0.02 0.02 0.02 0.02 0.02 0.02
0.02 0.01 0.01 0.00 0.00 0.00 0.01 0.02 0.03 0.03 0.01 0.01 0.01 0.01 0.01 0.01 0.01 0.02 0.02 0.02 0.03 0.05 0.06 0.07 0.08 0.10 0.09 0.08 0.08 0.08 0.08 0.07 0.06 0.05 0.04 0.03 0.03 0.02 0.02 0.02 0.02 0.02 0.02 0.03
0.01 0.01 0.00 0.00 0.00 0.01 0.01 0.02 0.03 0.03 0.02 0.01 0.01 0.01 0.01 0.01 0.01 0.01 0.01 0.01 0.02 0.04 0.05 0.06 0.06 0.08 0.09 0.10 0.09 0.07 0.06 0.06 0.05 0.04 0.04 0.04 0.03 0.03 0.03 0.03 0.03 0.04 0.04 0.05
0.00 0.01 0.01 0.01 0.01 0.01 0.02 0.03 0.03 0.03 0.02 0.01 0.01 0.02 0.02 0.02 0.02 0.02 0.02 0.03 0.04 0.05 0.05 0.04 0.04 0.03 0.03 0.04 0.05 0.04 0.05 0.04 0.04 0.03 0.03 0.04 0.04 0.04 0.05 0.06 0.06 0.07 0.08 0.09
0.01 0.01 0.01 0.01 0.01 0.01 0.02 0.03 0.03 0.03 0.03 0.02 0.02 0.02 0.03 0.04 0.03 0.02 0.03 0.03 0.04 0.04 0.04 0.04 0.04 0.04 0.04 0.04 0.05 0.04 0.04 0.04 0.04 0.04 0.04 0.04 0.04 0.05 0.06 0.07 0.07 0.09 0.11 0.13
0.01 0.01 0.01 0.01 0.01 0.02 0.03 0.03 0.03 0.04 0.03 0.02 0.02 0.03 0.04 0.04 0.03 0.03 0.03 0.03 0.03 0.03 0.03 0.04 0.04 0.04 0.04 0.04 0.04 0.03 0.03 0.03 0.03 0.03 0.03 0.03 0.04 0.04 0.05 0.07 0.07 0.10 0.13 0.14
0.02 0.01 0.01 0.02 0.02 0.02 0.03 0.03 0.04 0.04 0.03 0.02 0.03 0.03 0.03 0.02 0.03 0.04 0.04 0.04 0.04 0.04 0.03 0.03 0.04 0.05 0.03 0.03 0.02 0.02 0.01 0.02 0.02 0.02 0.03 0.03 0.04 0.04 0.05 0.06 0.07 0.09 0.10 0.12
0.05 0.04 0.04 0.04 0.03 0.03 0.03 0.03 0.04 0.04 0.03 0.03 0.03 0.03 0.04 0.05 0.08 0.09 0.08 0.07 0.05 0.04 0.03 0.03 0.04 0.05 0.03 0.02 0.03 0.03 0.02 0.02 0.02 0.03 0.03 0.04 0.06 0.08 0.09 0.08 0.07 0.05 0.05 0.05
0.04 0.05 0.05 0.05 0.04 0.04 0.04 0.03 0.02 0.03 0.05 0.06 0.06 0.08 0.11 0.12 0.11 0.10 0.08 0.06 0.06 0.05 0.03 0.04 0.04 0.04 0.03 0.03 0.02 0.02 0.02 0.02 0.03 0.04 0.04 0.05 0.06 0.07 0.07 0.06 0.04 0.03 0.03 0.03
0.04 0.04 0.03 0.03 0.03 0.04 0.04 0.03 0.02 0.02 0.04 0.07 0.08 0.09 0.08 0.08 0.07 0.05 0.04 0.04 0.04 0.04 0.03 0.03 0.04 0.05 0.04 0.03 0.03 0.03 0.02 0.02 0.03 0.03 0.03 0.04 0.04 0.04 0.04 0.03 0.03 0.03 0.03 0.03
0.05 0.04 0.03 0.02 0.02 0.03 0.02 0.02 0.02 0.03 0.04 0.05 0.07 0.06 0.06 0.05 0.04 0.04 0.04 0.04 0.03 0.03 0.02 0.02 0.04 0.04 0.04 0.04 0.04 0.03 0.04 0.04 0.03 0.03 0.03 0.03 0.03 0.03 0.03 0.02 0.02 0.02 0.03 0.03
0.06 0.06 0.04 0.03 0.03 0.03 0.03 0.02 0.02 0.03 0.03 0.03 0.04 0.04 0.03 0.03 0.03 0.04 0.05 0.05 0.04 0.03 0.03 0.04 0.05 0.05 0.04 0.04 0.04 0.03 0.04 0.03 0.03 0.02 0.02 0.02 0.02 0.02 0.02 0.02 0.03 0.03 0.03 0.03
MSLP
1009.68 1010.14 1010.60 1011.03 1011.41 1011.70 1011.89 1011.93 1011.84 1011.63 1011.33 1010.98 1010.65 1010.38 1010.23 1010.22 1010.35 1010.60 1010.94 1011.34 1011.75 1012.13 1012.47 1012.77 1013.03 1013.27 1013.51 1013.76 1014.04 1014.34 1014.65 1014.95 1015.24 1015.50 1015.72 1015.90 1016.05 1016.19 1016.31 1016.44 1016.56 1016.68 1016.78 1016.87
1010.00 1010.34 1010.61 1010.78 1010.87 1010.87 1010.79 1010.64 1010.44 1010.20 1009.94 1009.71 1009.53 1009.43 1009.41 1009.49 1009.66 1009.90 1010.20 1010.52 1010.85 1011.18 1011.50 1011.81 1012.12 1012.45 1012.78 1013.14 1013.51 1013.87 1014.23 1014.56 1014.85 1015.10 1015.32 1015.52 1015.70 1015.87 1016.04 1016.22 1016.40 1016.56 1016.70 1016.81
1010.49 1010.70 1010.76 1010.69 1010.50 1010.23 1009.91 1009.57 1009.24 1008.95 1008.72 1008.56 1008.48 1008.49 1008.57 1008.71 1008.89 1009.11 1009.35 1009.61 1009.88 1010.17 1010.47 1010.81 1011.18 1011.59 1012.02 1012.47 1012.92 1013.35 1013.74 1014.09 1014.39 1014.64 1014.86 1015.07 1015.27 1015.48 1015.70 1015.93 1016.15 1016.36 1016.52 1016.64
1011.06 1011.12 1011.00 1010.70 1010.27 1009.76 1009.23 1008.72 1008.28 1007.94 1007.71 1007.59 1007.58 1007.65 1007.78 1007.95 1008.13 1008.32 1008.52 1008.72 1008.94 1009.19 1009.50 1009.86 1010.29 1010.76 1011.27 1011.80 1012.32 1012.79 1013.22 1013.58 1013.89 1014.14 1014.36 1014.57 1014.79 1015.03 1015.29 1015.56 1015.81 1016.04 1016.21 1016.32
1011.58 1011.49 1011.19 1010.70 1010.08 1009.40 1008.71 1008.08 1007.56 1007.17 1006.93 1006.83 1006.86 1006.96 1007.11 1007.29 1007.46 1007.62 1007.77 1007.92 1008.10 1008.33 1008.63 1009.01 1009.47 1010.00 1010.56 1011.15 1011.71 1012.22 1012.67 1013.05 1013.36 1013.63 1013.86 1014.08 1014.32 1014.58 1014.85 1015.13 1015.40 1015.63 1015.79 1015.87
1011.91 1011.67 1011.22 1010.59 1009.84 1009.04 1008.26 1007.56 1007.00 1006.60 1006.36 1006.28 1006.32 1006.44 1006.60 1006.76 1006.91 1007.04 1007.15 1007.26 1007.41 1007.61 1007.90 1008.28 1008.76 1009.30 1009.90 1010.51 1011.10 1011.64 1012.11 1012.51 1012.85 1013.13 1013.38 1013.63 1013.88 1014.15 1014.43 1014.71 1014.96 1015.16 1015.29 1015.33
1011.93 1011.55 1010.99 1010.27 1009.45 1008.60 1007.80 1007.10 1006.55 1006.16 1005.95 1005.88 1005.94 1006.06 1006.22 1006.37 1006.49 1006.59 1006.66 1006.74 1006.86 1007.03 1007.30 1007.66 1008.12 1008.66 1009.26 1009.88 1010.48 1011.04 1011.54 1011.97 1012.34 1012.66 1012.95 1013.23 1013.50 1013.78 1014.05 1014.31 1014.52 1014.68 1014.76 1014.76
1011.58 1011.10 1010.46 1009.70 1008.88 1008.06 1007.29 1006.64 1006.14 1005.81 1005.63 1005.60 1005.67 1005.80 1005.94 1006.08 1006.18 1006.25 1006.29 1006.34 1006.41 1006.56 1006.78 1007.11 1007.54 1008.05 1008.62 1009.23 1009.84 1010.41 1010.95 1011.43 1011.85 1012.23 1012.57 1012.89 1013.19 1013.47 1013.74 1013.96 1014.13 1014.23 1014.25 1014.20
1010.90 1010.34 1009.67 1008.93 1008.16 1007.41 1006.74 1006.18 1005.77 1005.50 1005.38 1005.38 1005.46 1005.59 1005.73 1005.85 1005.93 1005.97 1005.99 1006.01 1006.05 1006.15 1006.33 1006.61 1006.98 1007.45 1007.98 1008.57 1009.17 1009.76 1010.33 1010.86 1011.36 1011.81 1012.22 1012.59 1012.93 1013.23 1013.47 1013.66 1013.78 1013.82 1013.78 1013.68
1009.98 1009.38 1008.73 1008.04 1007.37 1006.74 1006.19 1005.75 1005.44 1005.25 1005.19 1005.22 1005.31 1005.44 1005.57 1005.67 1005.74 1005.76 1005.76 1005.75 1005.76 1005.82 1005.95 1006.16 1006.47 1006.88 1007.36 1007.91 1008.50 1009.10 1009.71 1010.30 1010.87 1011.40 1011.89 1012.32 1012.69 1013.00 1013.24 1013.39 1013.46 1013.45 1013.36 1013.21
1008.96 1008.37 1007.76 1007.17 1006.61 1006.12 1005.70 1005.39 1005.18 1005.08 1005.07 1005.12 1005.23 1005.35 1005.47 1005.56 1005.61 1005.62 1005.61 1005.58 1005.57 1005.58 1005.66 1005.82 1006.06 1006.39 1006.81 1007.32 1007.88 1008.49 1009.13 1009.78 1010.41 1011.01 1011.56 1012.05 1012.46 1012.78 1013.00 1013.13 1013.15 1013.09 1012.96 1012.78
1007.96 1007.41 1006.89 1006.41 1005.99 1005.64 1005.37 1005.18 1005.07 1005.03 1005.06 1005.14 1005.25 1005.36 1005.47 1005.55 1005.60 1005.62 1005.60 1005.57 1005.54 1005.52 1005.55 1005.65 1005.82 1006.08 1006.43 1006.88 1007.41 1008.00 1008.65 1009.33 1010.00 1010.66 1011.26 1011.79 1012.22 1012.55 1012.76 1012.85 1012.85 1012.75 1012.59 1012.40
1007.08 1006.60 1006.19 1005.84 1005.56 1005.35 1005.21 1005.14 1005.12 1005.14 1005.21 1005.30 1005.41 1005.53 1005.63 1005.72 1005.78 1005.80 1005.80 1005.77 1005.73 1005.70 1005.69 1005.73 1005.83 1006.01 1006.29 1006.67 1007.14 1007.70 1008.34 1009.01 1009.71 1010.38 1011.01 1011.55 1011.99 1012.31 1012.51 1012.58 1012.55 1012.43 1012.26 1012.07
1006.34 1005.96 1005.66 1005.45 1005.32 1005.25 1005.24 1005.27 1005.33 1005.41 1005.51 1005.63 1005.75 1005.87 1005.99 1006.09 1006.18 1006.23 1006.25 1006.24 1006.21 1006.16 1006.12 1006.11 1006.14 1006.25 1006.44 1006.74 1007.15 1007.65 1008.24 1008.88 1009.56 1010.22 1010.84 1011.37 1011.80 1012.10 1012.28 1012.33 1012.29 1012.16 1011.99 1011.81
1005.72 1005.44 1005.28 1005.21 1005.23 1005.30 1005.40 1005.53 1005.68 1005.82 1005.97 1006.11 1006.26 1006.41 1006.55 1006.69 1006.81 1006.90 1006.96 1006.97 1006.95 1006.90 1006.84 1006.78 1006.75 1006.78 1006.90 1007.11 1007.43 1007.85 1008.37 1008.96 1009.58 1010.21 1010.79 1011.29 1011.69 1011.96 1012.11 1012.15 1012.10 1011.97 1011.82 1011.66
1005.15 1005.01 1004.98 1005.06 1005.21 1005.41 1005.64 1005.88 1006.10 1006.32 1006.52 1006.71 1006.91 1007.10 1007.28 1007.47 1007.63 1007.77 1007.87 1007.92 1007.91 1007.86 1007.78 1007.69 1007.60 1007.56 1007.59 1007.72 1007.95 1008.29 1008.72 1009.24 1009.79 1010.35 1010.87 1011.32 1011.68 1011.92 1012.05 1012.07 1012.01 1011.90 1011.76 1011.63
1004.62 1004.60 1004.71 1004.93 1005.22 1005.55 1005.90 1006.24 1006.56 1006.85 1007.12 1007.38 1007.63 1007.88 1008.12 1008.36 1008.57 1008.76 1008.90 1008.97 1008.99 1008.94 1008.84 1008.71 1008.58 1008.48 1008.44 1008.49 1008.64 1008.89 1009.24 1009.67 1010.15 1010.63 1011.09 1011.48 1011.79 1011.99 1012.10 1012.11 1012.05 1011.95 1011.84 1011.73
1004.10 1004.21 1004.46 1004.81 1005.23 1005.68 1006.14 1006.58 1006.99 1007.37 1007.72 1008.05 1008.37 1008.68 1008.98 1009.27 1009.53 1009.75 1009.92 1010.03 1010.05 1010.00 1009.89 1009.74 1009.58 1009.43 1009.34 1009.32 1009.40 1009.59 1009.86 1010.21 1010.61 1011.03 1011.42 1011.75 1012.01 1012.17 1012.25 1012.25 1012.20 1012.11 1012.01 1011.94
1003.67 1003.89 1004.26 1004.72 1005.25 1005.81 1006.37 1006.90 1007.40 1007.86 1008.29 1008.69 1009.07 1009.43 1009.78 1010.11 1010.41 1010.66 1010.85 1010.96 1010.99 1010.94 1010.82 1010.66 1010.48 1010.31 1010.18 1010.13 1010.17 1010.30 1010.52 1010.81 1011.14 1011.49 1011.82 1012.09 1012.30 1012.43 1012.48 1012.47 1012.41 1012.33 1012.25 1012.19
1003.39 1003.72 1004.18 1004.73 1005.35 1005.99 1006.62 1007.23 1007.80 1008.33 1008.82 1009.27 1009.70 1010.11 1010.50 1010.85 1011.16 1011.42 1011.62 1011.73 1011.75 1011.70 1011.58 1011.42 1011.23 1011.06 1010.93 1010.86 1010.87 1010.97 1011.16 1011.40 1011.68 1011.97 1012.24 1012.46 1012.62 1012.71 1012.73 1012.70 1012.62 1012.54 1012.46 1012.41
1003.34 1003.76 1004.29 1004.91 1005.58 1006.27 1006.96 1007.61 1008.22 1008.79 1009.32 1009.82 1010.28 1010.71 1011.10 1011.46 1011.77 1012.03 1012.21 1012.31 1012.33 1012.28 1012.16 1012.01 1011.84 1011.68 1011.56 1011.50 1011.51 1011.60 1011.76 1011.97 1012.20 1012.44 1012.66 1012.82 1012.93 1012.97 1012.95 1012.88 1012.79 1012.69 1012.61 1012.55
1003.59 1004.06 1004.64 1005.29 1005.99 1006.70 1007.40 1008.07 1008.70 1009.29 1009.83 1010.34 1010.80 1011.23 1011.62 1011.97 1012.26 1012.49 1012.66 1012.75 1012.76 1012.71 1012.61 1012.48 1012.33 1012.20 1012.11 1012.08 1012.10 1012.19 1012.33 1012.51 1012.70 1012.89 1013.04 1013.14 1013.19 1013.17 1013.10 1013.00 1012.87 1012.75 1012.64 1012.57
1004.10 1004.61 1005.21 1005.87 1006.57 1007.27 1007.96 1008.62 1009.24 1009.82 1010.35 1010.85 1011.30 1011.71 1012.08 1012.40 1012.67 1012.87 1013.02 1013.09 1013.11 1013.07 1012.99 1012.88 1012.78 1012.69 1012.63 1012.62 1012.66 1012.75 1012.87 1013.02 1013.16 1013.28 1013.37 1013.40 1013.38 1013.30 1013.17 1013.02 1012.85 1012.69 1012.56 1012.47
1004.82 1005.34 1005.94 1006.59 1007.25 1007.93 1008.58 1009.22 1009.81 1010.36 1010.87 1011.34 1011.77 1012.15 1012.49 1012.78 1013.02 1013.20 1013.33 1013.40 1013.42 1013.39 1013.34 1013.27 1013.21 1013.16 1013.14 1013.16 1013.21 1013.28 1013.38 1013.48 1013.57 1013.62 1013.63 1013.59 1013.49 1013.34 1013.15 1012.95 1012.74 1012.54 1012.38 1012.27
1005.62 1006.14 1006.72 1007.34 1007.97 1008.60 1009.22 1009.81 1010.36 1010.89 1011.37 1011.81 1012.20 1012.56 1012.87 1013.13 1013.34 1013.51 1013.62 1013.69 1013.72 1013.72 1013.70 1013.67 1013.64 1013.63 1013.64 1013.67 1013.72 1013.78 1013.83 1013.88 1013.90 1013.88 1013.80 1013.68 1013.50 1013.29 1013.04 1012.79 1012.54 1012.32 1012.14 1012.02
1006.38 1006.88 1007.43 1008.01 1008.60 1009.19 1009.77 1010.32 1010.84 1011.33 1011.78 1012.20 1012.57 1012.90 1013.18 1013.42 1013.62 1013.78 1013.89 1013.96 1014.01 1014.03 1014.04 1014.05 1014.05 1014.07 1014.09 1014.12 1014.15 1014.18 1014.19 1014.17 1014.11 1014.01 1013.86 1013.66 1013.41 1013.14 1012.85 1012.56 1012.29 1012.06 1011.87 1011.74
1006.98 1007.46 1007.99 1008.53 1009.08 1009.63 1010.17 1010.69 1011.19 1011.65 1012.09 1012.48 1012.83 1013.14 1013.42 1013.65 1013.83 1013.99 1014.10 1014.19 1014.25 1014.29 1014.33 1014.35 1014.38 1014.41 1014.43 1014.45 1014.46 1014.44 1014.39 1014.31 1014.18 1014.00 1013.77 1013.50 1013.20 1012.89 1012.57 1012.26 1011.99 1011.76 1011.58 1011.46
Thickness
5747 5754 5755 5754 5754 5751 5744 5739 5732 5738 5740 5753 5756 5759 5761 5762 5760 5758 5756 5755 5753 5750 5748 5747 5744 5742 5740 5737 5734 5731 5727 5724 5722 5720 5717 5715 5713 5711 5709 5707 5705 5702 5699 5698
5739 5747 5747 5745 5749 5750 5748 5745 5741 5742 5743 5757 5757 5757 5756 5755 5754 5753 5752 5752 5750 5747 5744 5741 5739 5737 5734 5732 5729 5726 5722 5720 5718 5715 5713 5710 5708 5706 5704 5702 5700 5697 5695 5693
5718 5731 5736 5726 5741 5744 5743 5744 5742 5736 5744 5751 5749 5750 5751 5751 5750 5750 5750 5749 5747 5744 5741 5739 5736 5733 5729 5727 5724 5721 5718 5715 5712 5710 5708 5705 5704 5701 5698 5696 5694 5692 5690 5688
5703 5714 5703 5726 5746 5746 5741 5741 5742 5742 5744 5745 5746 5749 5750 5750 5749 5747 5747 5745 5744 5741 5738 5736 5733 5729 5726 5722 5719 5715 5712 5710 5708 5705 5703 5700 5698 5696 5694 5691 5688 5686 5685 5684
5689 5691 5702 5724 5738 5737 5731 5730 5740 5738 5739 5740 5742 5742 5741 5746 5747 5746 5745 5743 5741 5739 5735 5732 5728 5725 5720 5717 5714 5711 5708 5705 5703 5700 5697 5695 5693 5691 5689 5685 5683 5681 5680 5679
5683 5686 5686 5714 5736 5742 5732 5718 5736 5735 5732 5731 5730 5720 5730 5742 5742 5741 5740 5738 5735 5733 5729 5725 5722 5719 5714 5711 5708 5705 5704 5702 5699 5696 5693 5690 5689 5686 5684 5681 5678 5677 5675 5674
5678 5679 5691 5718 5729 5730 5707 5712 5732 5730 5728 5725 5722 5724 5732 5736 5736 5735 5734 5732 5730 5726 5723 5720 5717 5713 5708 5705 5703 5702 5699 5697 5694 5691 5688 5686 5683 5681 5679 5677 5675 5672 5670 5670
5669 5671 5685 5717 5717 5711 5712 5723 5725 5724 5724 5721 5722 5725 5726 5727 5727 5727 5725 5724 5723 5719 5716 5714 5711 5706 5702 5699 5699 5696 5693 5690 5687 5685 5683 5681 5678 5675 5673 5670 5668 5666 5665 5664
5680 5685 5701 5707 5710 5715 5715 5714 5716 5716 5717 5717 5716 5716 5718 5719 5719 5718 5718 5716 5715 5712 5708 5706 5704 5701 5697 5695 5693 5689 5686 5683 5681 5679 5676 5674 5671 5668 5666 5663 5661 5660 5659 5658
5676 5686 5696 5700 5704 5707 5708 5708 5710 5711 5711 5710 5709 5710 5710 5710 5709 5709 5708 5707 5706 5704 5700 5698 5697 5695 5694 5691 5686 5683 5680 5677 5675 5672 5669 5667 5664 5662 5659 5657 5655 5654 5653 5653
5669 5680 5686 5693 5695 5698 5699 5701 5702 5703 5704 5703 5702 5702 5702 5701 5701 5700 5700 5700 5698 5696 5694 5692 5691 5689 5687 5684 5680 5677 5674 5671 5668 5665 5663 5659 5658 5655 5654 5653 5651 5649 5649 5648
5664 5674 5674 5681 5689 5691 5690 5691 5692 5692 5693 5695 5695 5694 5694 5693 5693 5693 5692 5691 5690 5688 5687 5685 5683 5681 5680 5677 5674 5670 5667 5664 5662 5659 5657 5654 5652 5651 5650 5648 5646 5645 5644 5643
5670 5674 5674 5678 5681 5683 5682 5683 5684 5684 5685 5685 5687 5686 5686 5685 5684 5684 5684 5684 5683 5682 5680 5678 5676 5674 5673 5670 5667 5664 5661 5659 5656 5654 5651 5648 5647 5644 5642 5641 5641 5640 5638 5637
5666 5667 5667 5670 5672 5675 5676 5677 5677 5677 5677 5678 5678 5678 5678 5677 5676 5674 5674 5675 5675 5674 5672 5670 5669 5667 5666 5664 5661 5658 5656 5654 5651 5649 5647 5644 5641 5639 5637 5635 5634 5634 5633 5631
5659 5661 5662 5665 5666 5667 5668 5668 5667 5667 5668 5669 5670 5670 5669 5668 5667 5666 5666 5666 5665 5664 5663 5661 5660 5659 5658 5656 5653 5651 5649 5647 5645 5644 5641 5638 5635 5633 5631 5629 5628 5627 5626 5625
5652 5653 5654 5655 5655 5657 5658 5659 5658 5659 5660 5661 5661 5662 5662 5661 5660 5660 5659 5658 5656 5655 5654 5653 5651 5651 5650 5648 5645 5644 5642 5641 5639 5637 5635 5632 5630 5627 5625 5623 5622 5621 5621 5620
5642 5643 5644 5645 5647 5649 5650 5652 5652 5653 5654 5654 5655 5656 5655 5653 5652 5652 5651 5651 5650 5649 5648 5646 5644 5644 5643 5641 5639 5637 5636 5634 5633 5631 5629 5626 5624 5622 5620 5618 5617 5616 5616 5615
5641 5642 5642 5642 5643 5643 5644 5646 5647 5648 5648 5650 5650 5650 5649 5647 5645 5645 5644 5643 5642 5642 5641 5640 5638 5638 5637 5635 5633 5632 5631 5629 5627 5625 5622 5619 5618 5616 5614 5613 5612 5611 5610 5609
5636 5636 5636 5637 5638 5638 5639 5640 5642 5643 5644 5643 5643 5642 5642 5641 5640 5639 5638 5637 5635 5634 5635 5634 5633 5632 5631 5630 5629 5627 5626 5624 5620 5618 5617 5615 5613 5612 5610 5608 5607 5607 5605 5604
5630 5630 5631 5632 5633 5634 5634 5636 5636 5637 5637 5637 5636 5635 5634 5634 5634 5633 5632 5630 5630 5631 5631 5629 5628 5627 5626 5624 5623 5622 5620 5618 5616 5614 5612 5611 5610 5608 5606 5605 5604 5602 5601 5599
5623 5624 5624 5625 5626 5628 5629 5630 5630 5629 5629 5629 5628 5628 5628 5628 5628 5627 5626 5626 5627 5626 5625 5624 5623 5622 5620 5619 5618 5616 5614 5612 5611 5609 5608 5607 5605 5604 5602 5601 5600 5599 5597 5596
5617 5617 5617 5617 5619 5620 5621 5622 5622 5622 5622 5621 5621 5621 5621 5621 5622 5621 5621 5621 5623 5622 5620 5619 5618 5617 5616 5615 5613 5611 5609 5607 5606 5604 5603 5602 5600 5599 5599 5598 5597 5595 5593 5592
5610 5610 5610 5611 5612 5612 5613 5614 5615 5615 5615 5615 5615 5615 5616 5616 5616 5616 5615 5617 5617 5617 5616 5615 5613 5612 5610 5609 5608 5606 5605 5603 5602 5600 5599 5598 5597 5596 5595 5594 5593 5592 5590 5589
5603 5603 5604 5604 5606 5606 5605 5606 5607 5608 5608 5609 5609 5609 5610 5610 5610 5611 5612 5612 5612 5612 5612 5610 5608 5607 5605 5604 5603 5602 5601 5600 5598 5597 5595 5594 5593 5592 5591 5590 5589 5587 5586 5585
5597 5597 5597 5598 5598 5598 5598 5598 5599 5601 5602 5603 5603 5604 5605 5606 5606 5606 5606 5606 5606 5606 5606 5606 5604 5603 5602 5600 5599 5598 5597 5596 5594 5593 5592 5590 5589 5588 5587 5586 5585 5583 5582 5580
5591 5591 5591 5592 5592 5592 5593 5593 5595 5596 5597 5597 5597 5598 5599 5600 5600 5600 5600 5601 5601 5601 5601 5600 5599 5598 5597 5595 5594 5593 5591 5590 5589 5587 5586 5585 5584 5583 5582 5581 5579 5578 5576 5575
5585 5585 5586 5587 5587 5588 5589 5590 5590 5591 5591 5591 5591 5592 5593 5594 5594 5595 5595 5595 5595 5594 5594 5594 5593 5592 5591 5590 5588 5587 5586 5585 5584 5583 5581 5580 5579 5578 5577 5575 5574 5573 5571 5570